{"data":{"norad_id":65445,"intl_designator":"2025-194M","name":"STARLINK-35029","alt_names":[],"object_type":"PAYLOAD","status":"ACTIVE","operator":null,"country":"US","launch_date":"2025-09-03","launch_site_code":"AFWTR","launch_vehicle":null,"mission":null,"orbit_class":"UNKNOWN","rcs_meters":null,"size_class":null,"mass_kg":null,"dimensions":null,"purposes":["comms"],"wikipedia_slug":null,"has_3d_model":false,"image_url":null,"decayed_at":null,"tle_current":{"epoch":"2026-05-25T03:38:16.446336Z","epoch_age_seconds":59265,"freshness":"FRESH","line1":"1 65445U 25194M   26145.15157924  .00003350  00000+0  23613-3 0  9995","line2":"2 65445  97.4506 359.3844 0002318  65.6440 294.5029 15.05653806 41153","mean_motion":15.05653806,"eccentricity":0.0002318,"inclination_deg":97.4506,"raan_deg":359.3844,"arg_perigee_deg":65.644,"mean_anomaly_deg":294.5029,"bstar":0.00023613,"rev_number":4115,"period_min":95.639515156913,"perigee_km":547.89365340008,"apogee_km":551.10530567199,"semimajor_km":6927.636479536,"source":"CELESTRAK","updated_at":"2026-05-25T13:38:20.808032Z"}}}